Погода в Октябрьском

Россия / Ульяновская область     52°44′49″N   47°08′00″E
темп.,
°C
ветер,
м/с
пор.,
м/с
влажн.,
%
обл.,
%
осадки,
мм/ч
давл.,
гПа
погр.,
м
15 мая, сб
сб1501:00+17ююв3562100 0.0 101868
04:00+15ююв336056 0.0 101924
07:00+18ююв395717 0.0 1019180
10:00+23ююв59395 0.0 1019442
13:00+26ю7103480 0.0 10191018
16:00+28ю6113518 0.0 10181648
19:00+24ююв37505 0.0 1018111
22:00+19юв33505 0.0 101820
16 мая, вс
вс1601:00+17юв225273 0.0 101717
04:00+16ююв226137 0.0 101716
07:00+18юв376563 0.0 1018169
10:00+23ю584538 0.0 1018475
13:00+26ю573796 0.0 10181046
16:00+27ююз4836100 0.0 10171914
19:00+25ююв2251100 0.0 101611
22:00+20ююв2250100 0.0 101711
17 мая, пн
пн1701:00+19юв225480 0.0 101711
04:00+17ю225946 0.0 101711
07:00+20юв225959 0.0 101831
10:00+25юв464065 0.0 1018413
13:00+27ююв5833100 0.0 10181428
16:00+28ююв3631100 0.0 10173063
19:00+25юв334822 0.0 101738
22:00+20вюв224531 0.0 101811
18 мая, вт
вт1801:00+18в224979 0.0 101711
04:00+17в224583 0.0 101712
07:00+18в245499 0.0 101797
10:00+23вюв574444 0.0 1016413
13:00+27юв57355 0.0 1016885
16:00+29юв483220 0.0 10153614
19:00+25вюв364929 0.0 1014102
22:00+20вюв33485 0.0 101529
19 мая, ср
ср1901:00+18в334485 0.0 101427
04:00+17в334725 0.0 101429
07:00+18в3115880 0.0 1014278
10:00+24юв610485 0.0 1013599
13:00+28юв711375 0.0 10121931
16:00+29юв7103587 0.0 10112169
19:00+23ю385396 0.0 1010160
22:00+19зюз226014 0.0 101117